634  
ASUS42 KRAH 192310  
RWRRAH  
NORTH CAROLINA WEATHER ROUNDUP  
NATIONAL WEATHER SERVICE RALEIGH NC  
700 PM EDT TUE JUN 19 2018  
 
NOTE: "FAIR" INDICATES FEW OR NO CLOUDS BELOW 12,000 FEET WITH NO  
SIGNIFICANT WEATHER AND/OR S TO VISIBILITY
.  
 
NCZ001-053-055-056-065-067-200000-  
WESTERN NORTH CAROLINA  
 
CITY SKY/WX TMP DP RH WIND PRES REMARKS
 
ASHEVILLE FAIR 82 67 60 CALM 30.03F  
JEFFERSON FAIR 78 65 66 W10 30.06F  
MORGANTON FAIR 89 72 56 SW5 29.97S HX 95  
HICKORY FAIR 88 71 57 VRB6 29.92F  
RUTHERFORDTON CLOUDY 85 74 69 W5 29.95S  
MOUNT AIRY FAIR 90 75 61 CALM 29.92S HX 101  
BOONE FAIR 80 62 54 W8G18 30.08S  

 
 
NCZ021-022-025-041-071-084-088-200000-  
CENTRAL NORTH CAROLINA  
 
CITY SKY/WX TMP DP RH WIND PRES REMARKS
 
CHARLOTTE FAIR 93 71 48 N7 29.90S HX 100  
GREENSBORO FAIR 89 69 51 NW10 29.87S  
WINSTON-SALEM FAIR 90 70 51 SW5 29.90S HX 95  
RALEIGH-DURHAM FAIR 92 72 51 W6 29.84S HX 99  
FORT BRAGG FAIR 96 70 42 SW7 29.82S HX 102  
FAYETTEVILLE FAIR 94 72 48 S9 29.83S HX 102  
BURLINGTON FAIR 95 67 39 W9 29.84S HX 99  
LAURINBURG FAIR 93 73 52 SW9 29.85R HX 102  

 
 
NCZ011-015-027-028-043-044-047-080-103-200000-  
NORTHEASTERN NORTH CAROLINA  
 
CITY SKY/WX TMP DP RH WIND PRES REMARKS
 
ROCKY MT-WILSO FAIR 94 69 44 NW6 29.81S HX 99  
GREENVILLE FAIR 95 70 43 CALM 29.83R HX 101  
WASHINGTON FAIR 95 70 43 CALM 29.80R HX 102  
ELIZABETH CITY FAIR 92 76 59 SW7 29.78S HX 104  
MANTEO FAIR 88 75 66 S6 29.80S HX 97  
CAPE HATTERAS FAIR 85 79 82 SW9 29.81S HX 98  

 
 
NCZ078-087-090-091-093-098-101-200000-  
SOUTHEASTERN NORTH CAROLINA  
 
CITY SKY/WX TMP DP RH WIND PRES REMARKS
 
LUMBERTON FAIR 94 72 48 SW7 29.83S HX 102  
GOLDSBORO FAIR 97 68 38 W9 29.81R HX 102  
KINSTON SUNNY 93 68 43 W3 29.82R HX 97  
KENANSVILLE PTSUNNY 93 75 55 SW8 29.82S HX 104  
NEW BERN FAIR 93 74 53 W5 29.82R HX 103  
CHERRY POINT FAIR 94 77 57 SW8 29.82 HX 108  
BEAUFORT FAIR 84 80 88 SW14 29.83R HX 97  
JACKSONVILLE FAIR 93 75 55 SW8 29.81S HX 104  
WILMINGTON FAIR 89 76 65 SW12 29.84R HX 100  

 
 
 
 
CLICK HERE TO GO TO PREVIOUS BULLETINS.

The Nexlab NC Page Main Text Page